Simultaneous Nadir Overpasses (SNOs) Predictions

Prediction of SNOs between AQUA and GOES-15 Satellite Orbit:

Table of predicted SNOs for the next 14.0 days since TLE Epoch: 2/19/2021
Index Date Time (AQUA) AQUA Lat,Lon GOES-15 Lat,Lon Distance(km) Time Diff (sec)
1 02/20/2021 21:52:00 1.00,-124.26 0.19,-128.06 432.83 80
2 02/21/2021 10:13:16 0.10,-129.42 -0.18,-128.04 155.76 80
3 02/23/2021 10:01:05 -0.55,-126.46 -0.18,-128.09 185.83 80
4 02/23/2021 22:22:28 -0.60,-131.64 0.17,-128.13 399.68 80
5 02/25/2021 22:10:17 0.05,-128.69 0.16,-128.17 58.54 80
6 02/27/2021 21:58:06 0.70,-125.73 0.16,-128.21 282.19 80
7 02/28/2021 10:19:22 0.40,-130.89 -0.15,-128.20 305.72 80
8 03/02/2021 10:07:10 -0.19,-127.92 -0.16,-128.23 34.40 80
9 03/04/2021 09:54:59 -0.85,-124.97 -0.16,-128.26 373.72 80
10 03/04/2021 22:16:23 -0.22,-130.17 0.15,-128.29 213.18 80
